Regional Weather Roundup
Issued by NWS

Home | Current Version | Previous Version | Text Only | Print | Product List | Glossary Off
Versions: 1 2 3 4 5 6 7 8 9 10 11 12 13 14 15 16 17 18 19 20 21 22 23 24 25 26 27 28 29 30 31 32 33 34 35 36 37 38 39 40 41 42 43 44 45 46 47 48 49 50

000
ASUS43 KBIS 271510
RWRND

NORTH DAKOTA REGIONAL WEATHER ROUNDUP
NATIONAL WEATHER SERVICE BISMARCK ND
1000 AM CDT THU AUG 27 2015

NOTE: "FAIR" INDICATES FEW OR NO CLOUDS BELOW 12,000 FEET WITH NO
SIGNIFICANT WEATHER AND/OR OBSTRUCTIONS TO VISIBILITY.


NDZ001>003-009>011-017-271600-
NORTHWEST NORTH DAKOTA

CITY           SKY/WX    TMP DP  RH WIND       PRES   REMARKS
WILLISTON      MOSUNNY   66  59  78 NE3       29.98S
MINOT          PTSUNNY   63  60  90 N6        29.95F
MINOT AFB      PTSUNNY   64  63  99 N8        29.95F
$$

NDZ018>021-031>035-040>046-271600-
SOUTHWEST NORTH DAKOTA

CITY           SKY/WX    TMP DP  RH WIND       PRES   REMARKS
BISMARCK       PTSUNNY   67  62  84 CALM      29.97F
DICKINSON      CLOUDY    67  63  87 S7        29.98F
GARRISON         N/A     70  64  81 CALM      29.96F
HETTINGER ARPT PTSUNNY   68  60  75 SE5       30.02S
$$

NDZ004>008-012>016-024-026-027-054-271600-
NORTHEAST NORTH DAKOTA

CITY           SKY/WX    TMP DP  RH WIND       PRES   REMARKS
GRAND FORKS    MOSUNNY   62  55  77 SE6       29.97F
GRND FRKS AFB  MOSUNNY   62  55  80 S3        29.97F
DEVILS LAKE    MOSUNNY   66  57  72 N5        29.95F
$$

NDZ022-023-025-028>030-036>039-047>053-271600-
SOUTHEAST NORTH DAKOTA

CITY           SKY/WX    TMP DP  RH WIND       PRES   REMARKS
FARGO          MOSUNNY   68  58  70 SE8       29.96F
JAMESTOWN      PTSUNNY   66  59  78 SE3       29.97S
$$




USA.gov is the U.S. government's official web portal to all federal, state and local government web resources and services.